Lid_Strength_Index
10 9 9 9 9 8 10 11 13 11 12 11 10 9 8 7 6 6 6 6 5 5 4 4 3 3 2 2 2 2 2 2 2 2 1 1 1 1 1 1 1 1 1 1
12 9 9 9 8 8 8 8 10 10 13 9 8 7 7 7 7 7 6 6 5 4 4 4 3 3 3 2 2 2 2 2 2 2 1 1 1 1 1 1 1 1 1 2
15 10 10 12 10 9 9 8 9 12 10 8 8 7 7 7 7 7 6 6 5 5 4 4 4 4 4 4 3 2 2 2 2 2 2 2 1 2 1 2 2 3 4 5
15 13 18 11 8 8 8 8 9 9 9 8 8 7 7 6 6 6 6 5 5 5 5 5 5 5 4 3 3 3 3 2 2 2 2 2 1 2 3 3 4 5 6 8
16 15 12 10 9 9 10 11 8 8 8 8 7 7 8 6 5 5 5 6 6 6 6 6 5 2 2 3 3 3 2 2 2 2 2 2 2 3 5 6 7 7 7 7
14 17 18 11 7 6 7 14 7 7 8 8 8 12 10 6 5 6 7 7 6 6 5 4 5 4 4 6 5 4 4 4 4 4 4 4 4 5 6 7 8 8 9 9
14 15 12 8 6 6 14 14 8 7 7 8 9 8 6 6 6 6 7 6 6 5 6 6 6 6 7 7 8 7 6 7 7 7 8 7 7 8 8 8 9 10 10 10
13 15 16 7 7 11 10 8 7 7 7 7 7 6 6 6 6 6 6 5 5 7 7 7 7 7 8 9 8 8 8 9 8 8 8 8 9 9 9 9 10 10 11 10
13 14 9 7 8 6 6 7 7 7 6 6 6 6 6 7 7 6 6 6 6 7 8 8 8 7 9 9 9 9 9 10 9 9 9 9 9 10 9 9 10 11 11 11
11 10 9 8 7 6 6 6 6 5 5 5 6 6 7 7 6 6 6 7 6 7 8 8 7 7 8 8 8 8 9 8 8 9 9 9 8 8 9 9 9 10 10 10
10 9 8 7 6 6 6 5 5 4 5 5 5 5 5 6 6 7 7 7 6 8 8 8 7 7 7 7 8 9 10 10 10 11 11 11 11 10 10 10 9 10 10 10
12 8 9 8 6 5 6 6 5 5 5 4 5 5 5 6 6 6 7 7 7 6 6 6 6 7 7 7 8 10 11 11 11 12 11 11 12 13 11 11 12 13 12 11
8 6 6 6 5 5 5 5 5 4 4 5 4 4 4 6 6 6 6 6 6 6 6 6 6 7 7 8 9 11 11 11 11 11 11 12 13 14 14 14 12 13 13 13
5 6 7 6 6 5 4 4 4 4 4 4 4 4 4 5 5 5 6 6 5 5 5 6 6 7 6 7 7 8 9 8 10 10 11 11 12 13 13 14 14 14 12 12
5 5 6 5 5 5 4 4 5 5 4 4 3 4 4 5 5 4 5 4 3 4 5 5 5 5 6 7 8 9 9 9 9 9 9 10 11 11 11 10 11 12 13 12
5 5 5 5 6 5 5 5 5 5 5 4 4 4 3 3 3 4 4 4 5 6 6 6 6 6 5 6 7 7 7 6 6 7 7 7 7 7 8 8 9 10 10 11
6 7 6 6 6 5 5 4 4 5 4 4 4 3 3 3 4 5 5 4 5 5 5 5 6 5 5 5 6 5 7 7 6 6 6 6 6 6 8 7 8 9 10 9
4 4 4 5 5 5 5 4 4 4 4 3 3 3 4 5 5 5 5 5 5 4 3 3 3 3 2 3 3 5 7 7 6 5 5 6 6 7 8 8 8 9 11 12
3 4 4 4 4 4 4 4 4 3 3 3 4 4 4 5 5 5 5 5 4 4 4 3 1 2 4 3 4 4 5 5 4 5 6 6 7 7 6 6 7 9 11 11
4 4 4 4 3 4 4 3 3 3 3 4 5 5 5 5 5 5 4 4 3 2 2 2 3 3 3 4 4 6 6 5 4 4 6 7 5 5 6 7 7 8 8 9
4 4 4 4 4 3 3 3 3 4 4 4 4 5 5 5 5 3 4 4 3 2 3 2 3 3 4 5 6 7 6 5 5 5 5 5 5 5 5 6 7 8 8 8
4 4 4 4 4 4 3 3 3 5 6 5 5 5 5 4 4 3 3 4 4 6 5 5 7 5 7 5 6 6 6 6 6 5 5 5 5 5 6 7 7 7 8 8
4 4 4 4 5 5 4 4 4 4 3 3 4 3 4 4 4 5 6 5 6 7 6 7 9 5 6 6 6 6 5 4 5 6 6 6 5 6 6 7 7 7 8 7
4 4 4 4 4 5 5 5 4 4 4 4 3 3 4 5 5 5 5 6 6 6 6 7 7 6 6 7 6 6 6 5 6 6 6 7 6 6 6 7 7 7 7 6
5 4 4 4 5 6 5 5 6 5 5 4 4 4 3 3 5 6 5 6 7 6 6 7 6 6 7 7 7 6 5 6 6 7 7 6 6 6 6 6 6 6 6 6
5 5 5 5 5 4 5 5 6 5 5 5 4 4 4 4 5 4 4 5 5 5 5 5 6 7 7 7 6 5 6 6 7 7 6 6 7 6 6 6 7 6 6 5
5 6 5 5 5 5 5 5 6 6 5 5 4 4 4 4 5 5 5 4 4 4 4 4 5 5 6 6 6 5 5 6 6 6 6 6 6 6 5 5 5 5 5 5